[[{"header":{"parameterUnit":"m.s-1","parameterCategory":1,"la1":30.2991,"la2":30.254,"lo1":-89.0895,"lo2":-89.0444,"dy":0.0017,"dx":0.0017,"nx":28,"ny":28,"refTime":"2025-11-05T03:00:00:Z","depth":0,"parameterNumber":2,"parameterNumberName":"U-component_of_WINDS"},"data":[0,0,0,0,0,0,0,0,0,0,0,0,0,0,0,0,0,0,0,0,0,0,0,0,0,0,0,0,0,0,0,0,0,0,0,0,0,0,0,0,0,0,0,0,0,0,0,0,0,0,0,0,0,0,0,0,0,0,-0.7508,-0.7508,0,-0.7546,-0.7546,-0.7547,-0.7505,-0.7503,-0.7501,-0.75,-0.7539,-0.7542,-0.7544,0,0,0,0,0,0,0,0,0,0,0,0,0,-0.7401,-0.7403,-0.7508,-0.7509,-0.7509,-0.7546,-0.7546,-0.7547,-0.7505,-0.7503,-0.7501,-0.7499,-0.7539,-0.7542,-0.7545,0,0,0,0,0,0,0,0,0,0,0,0,0,-0.7444,-0.7403,-0.7508,-0.7492,-0.7491,-0.7546,-0.7546,-0.7547,-0.7505,-0.7503,-0.75,-0.7498,-0.7538,-0.7541,-0.7545,-0.7617,0,0,-0.7557,-0.7558,0,0,0,0,0,0,0,0,-0.7441,-0.7448,-0.7494,-0.7494,-0.7493,-0.7518,-0.7523,-0.757,-0.7506,-0.75,-0.75,-0.7497,-0.7534,-0.7538,-0.7551,-0.7619,-0.762,-0.7557,-0.7559,-0.7561,-0.7562,0,0,0,0,0,0,0,-0.7438,-0.7446,-0.7523,-0.7495,-0.7494,-0.7484,-0.7487,-0.7532,-0.753,-0.75,-0.7497,-0.7502,-0.7533,-0.7547,-0.7551,-0.7621,-0.7557,-0.756,-0.7563,-0.7564,-0.775,-0.7752,0,0,0,0,0,0,-0.7437,-0.7444,-0.7522,-0.7524,-0.746,-0.7488,-0.7492,-0.7512,-0.753,-0.753,-0.7504,-0.75,-0.7542,-0.7547,-0.7553,-0.7638,-0.7561,-0.7565,-0.7567,-0.7747,-0.7751,-0.7753,0,0,0,0,0,0,-0.7435,-0.7444,-0.752,-0.7483,-0.7492,-0.7492,-0.7516,-0.7514,-0.7528,-0.7533,-0.7532,-0.7519,-0.754,-0.7547,-0.7601,-0.7639,-0.7566,-0.757,-0.7744,-0.7748,-0.7752,-0.781,0,0,0,0,0,0,-0.7432,-0.7444,-0.7471,-0.7484,-0.7494,-0.7568,-0.7518,-0.7517,-0.7534,-0.7529,-0.7546,-0.7546,-0.7539,-0.7596,-0.7605,-0.7643,-0.7573,-0.7741,-0.7746,-0.7751,-0.7804,-0.7815,-0.7824,0,0,0,0,0,-0.7428,-0.7486,-0.7472,-0.7482,-0.7528,-0.757,-0.7576,-0.7566,-0.7538,-0.7565,-0.7568,-0.7546,-0.7633,-0.7602,-0.7612,-0.7651,-0.7738,-0.7745,-0.775,-0.78,-0.7813,-0.7824,0,0,0,0,0,0,-0.7477,-0.7487,-0.7473,-0.7536,-0.7553,-0.7563,-0.7598,-0.758,-0.7606,-0.76,-0.7586,-0.759,-0.7648,-0.7655,-0.762,-0.7722,-0.7681,-0.7689,-0.7715,-0.7728,-0.7738,-0.7735,-0.7576,0,0,0,0,0,-0.7495,-0.7529,-0.7536,-0.7591,-0.76,-0.7598,-0.7616,-0.7606,-0.7623,-0.763,-0.7637,-0.7655,-0.7686,-0.7707,-0.7736,-0.7805,-0.7808,-0.7837,-0.7847,-0.7855,-0.7863,-0.79,-0.7913,-0.7773,-0.7773,-0.7773,0,0,-0.7534,-0.7543,-0.7565,-0.7601,-0.7613,-0.7649,-0.7604,-0.7643,-0.7669,-0.7636,-0.7688,-0.7694,-0.7712,-0.7774,-0.7802,-0.7782,-0.7902,-0.7863,-0.7869,-0.7872,-0.7908,-0.7921,-0.7933,-0.7777,-0.7776,-0.7776,0,0,-0.7621,-0.7631,-0.7679,-0.7691,-0.771,-0.7708,-0.7719,-0.7732,-0.7735,-0.7786,-0.7762,-0.7793,-0.7848,-0.7862,-0.7877,-0.797,-0.795,-0.7979,-0.8032,-0.8068,-0.8079,-0.8089,-0.8123,-0.8135,-0.7987,-0.7987,-0.7987,0,-0.7666,-0.7718,-0.7705,-0.7747,-0.7764,-0.7735,-0.7783,-0.7796,-0.7823,-0.7836,-0.7812,-0.788,-0.7891,-0.7956,-0.7978,-0.7991,-0.8004,-0.7978,-0.8079,-0.8088,-0.8097,-0.813,-0.8142,-0.799,-0.799,-0.799,-0.7989,0,-0.7773,-0.781,-0.7846,-0.7873,-0.7894,-0.7938,-0.7932,-0.7955,-0.7944,-0.7944,-0.7997,-0.8009,-0.804,-0.8054,-0.8044,-0.8118,-0.8105,-0.8081,-0.804,-0.8114,-0.8145,-0.8157,-0.7995,-0.7994,-0.7993,-0.7992,0,0,-0.7894,-0.7913,-0.7926,-0.7938,-0.7956,-0.7985,-0.8028,-0.8058,-0.8078,-0.8098,-0.8134,-0.818,-0.8158,-0.8174,-0.8165,-0.8197,-0.8271,-0.8169,-0.8169,-0.8188,-0.8355,-0.8374,-0.8388,-0.8258,-0.826,-0.8262,-0.8353,0,-0.7982,-0.8057,-0.8047,-0.8119,-0.8153,-0.8126,-0.8164,-0.8179,-0.8181,-0.821,-0.8211,-0.8245,-0.8212,-0.8222,-0.8252,-0.8256,-0.8304,-0.8249,-0.8292,-0.8294,-0.829,-0.8404,-0.8424,-0.851,-0.8365,-0.8367,-0.8368,0,-0.8096,-0.812,-0.8195,-0.8208,-0.8222,-0.8257,-0.8284,-0.8312,-0.8329,-0.8327,-0.8346,-0.8331,-0.8374,-0.8332,-0.8392,-0.8355,-0.8372,-0.8376,-0.8379,-0.8384,-0.8337,-0.8413,-0.8537,-0.855,-0.8387,-0.8385,-0.8384,0,-0.8177,-0.8228,-0.828,-0.8291,-0.8307,-0.8332,-0.834,-0.8355,-0.8374,-0.8397,-0.841,-0.8438,-0.8454,-0.8476,-0.8469,-0.8439,-0.8532,-0.8488,-0.8532,-0.8533,-0.8554,-0.8553,-0.8684,-0.8563,-0.8563,-0.8563,-0.8563,0,-0.8278,-0.8326,-0.8317,-0.8349,-0.8402,-0.8389,-0.8442,-0.8447,-0.846,-0.8493,-0.847,-0.8502,-0.849,-0.8521,-0.8516,-0.8567,-0.8574,-0.8575,-0.8573,-0.8578,-0.8578,-0.8589,-0.8584,-0.8566,-0.8566,-0.8565,-0.8564,0,-0.8379,-0.8374,-0.843,-0.844,-0.8444,-0.8483,-0.8492,-0.8523,-0.8522,-0.8564,-0.8573,-0.8572,-0.8607,-0.8602,-0.8641,-0.8638,-0.8702,-0.8692,-0.8696,-0.8695,-0.8739,-0.8736,-0.8884,-0.8903,-0.8768,-0.877,-0.8771,0,-0.8444,-0.848,-0.8494,-0.8515,-0.8525,-0.8558,-0.8577,-0.8566,-0.8587,-0.8609,-0.8637,-0.867,-0.8695,-0.8753,-0.8756,-0.8786,-0.8777,-0.8827,-0.8782,-0.8785,-0.8779,-0.8778,-0.8781,-0.8836,-0.8838,-0.8839,-0.884,0,-0.856,-0.8556,-0.8585,-0.8613,-0.8636,-0.8658,-0.8677,-0.8695,-0.8685,-0.871,-0.8746,-0.8766,-0.8805,-0.8839,-0.8867,-0.8875,-0.8857,-0.8854,-0.8866,-0.8872,-0.8873,-0.8874,-0.8722,-0.8851,-0.885,-0.8849,-0.8849,-0.8848,-0.8646,-0.8677,-0.8692,-0.8724,-0.8738,-0.8756,-0.8785,-0.8788,-0.8818,-0.8849,-0.8841,-0.8881,-0.8897,-0.8933,-0.8944,-0.8976,-0.8957,-0.8975,-0.8979,-0.8984,-0.899,-0.8867,-0.8981,-0.898,-0.898,-0.898,-0.8979,0,-0.8762,-0.877,-0.88,-0.8828,-0.8853,-0.8833,-0.8853,-0.8876,-0.8912,-0.8928,-0.8954,-0.8995,-0.9027,-0.9033,-0.9063,-0.9088,-0.908,-0.9096,-0.9095,-0.9097,-0.9004,-0.8991,-0.9102,-0.9102,-0.9102,-0.9102,-0.9102,-0.9102,-0.8825,-0.8877,-0.8875,-0.8933,-0.8941,-0.898,-0.8994,-0.9011,-0.9024,-0.9071,-0.9097,-0.91,-0.9113,-0.9144,-0.9172,-0.9173,-0.9186,-0.9206,-0.9203,-0.9116,-0.9104,-0.9092,-0.908,-0.9208,-0.9208,-0.9294,-0.9295,-0.9296]},{"header":{"parameterUnit":"m.s-1","parameterCategory":1,"la1":30.2991,"la2":30.254,"lo1":-89.0895,"lo2":-89.0444,"dy":0.0017,"dx":0.0017,"nx":28,"ny":28,"refTime":"2025-11-05T03:00:00:Z","depth":0,"parameterNumber":3,"parameterNumberName":"V-component_of_WINDS"},"data":[0,0,0,0,0,0,0,0,0,0,0,0,0,0,0,0,0,0,0,0,0,0,0,0,0,0,0,0,0,0,0,0,0,0,0,0,0,0,0,0,0,0,0,0,0,0,0,0,0,0,0,0,0,0,0,0,0,0,-1.8006,-1.8005,0,-1.7972,-1.7972,-1.7972,-1.7924,-1.7923,-1.7922,-1.7922,-1.7889,-1.7889,-1.7889,0,0,0,0,0,0,0,0,0,0,0,0,0,-1.803,-1.803,-1.8006,-1.8005,-1.8005,-1.7972,-1.7972,-1.7971,-1.7924,-1.7923,-1.7922,-1.7921,-1.7889,-1.7889,-1.7889,0,0,0,0,0,0,0,0,0,0,0,0,0,-1.801,-1.803,-1.8006,-1.7978,-1.7975,-1.7972,-1.7972,-1.7971,-1.7924,-1.7923,-1.7922,-1.7921,-1.7889,-1.7889,-1.7888,-1.7912,0,0,-1.7888,-1.7888,0,0,0,0,0,0,0,0,-1.8011,-1.8009,-1.7982,-1.7979,-1.7976,-1.7951,-1.7968,-1.7951,-1.7925,-1.7944,-1.7922,-1.792,-1.7911,-1.7909,-1.7905,-1.791,-1.7909,-1.7888,-1.7888,-1.7888,-1.7888,0,0,0,0,0,0,0,-1.8013,-1.8011,-1.7993,-1.7982,-1.7978,-1.7967,-1.7963,-1.7965,-1.7934,-1.7942,-1.7938,-1.7935,-1.7909,-1.7905,-1.7904,-1.7908,-1.7888,-1.7888,-1.7888,-1.7888,-1.793,-1.7931,0,0,0,0,0,0,-1.8018,-1.8012,-1.7994,-1.7992,-1.7991,-1.7967,-1.7963,-1.796,-1.7934,-1.7929,-1.7936,-1.7933,-1.7906,-1.7904,-1.7903,-1.7927,-1.7888,-1.7888,-1.7887,-1.7929,-1.7931,-1.7932,0,0,0,0,0,0,-1.8019,-1.8017,-1.7995,-1.8001,-1.7997,-1.7968,-1.7966,-1.796,-1.7957,-1.793,-1.7924,-1.7938,-1.7905,-1.7903,-1.791,-1.7926,-1.7888,-1.7887,-1.7928,-1.793,-1.7931,-1.7978,0,0,0,0,0,0,-1.802,-1.8018,-1.8026,-1.8001,-1.7997,-1.8003,-1.7967,-1.7961,-1.7956,-1.7952,-1.793,-1.7925,-1.7904,-1.791,-1.7909,-1.7925,-1.7887,-1.7926,-1.7928,-1.7931,-1.7975,-1.7981,-1.7987,0,0,0,0,0,-1.8021,-1.8041,-1.8027,-1.8025,-1.8007,-1.8004,-1.8001,-1.7976,-1.7958,-1.7966,-1.7949,-1.7926,-1.7924,-1.7911,-1.791,-1.7926,-1.7925,-1.7928,-1.793,-1.7972,-1.798,-1.7987,0,0,0,0,0,0,-1.8069,-1.8037,-1.8021,-1.8034,-1.8022,-1.7996,-1.8005,-1.7985,-1.7978,-1.7974,-1.7943,-1.7939,-1.7949,-1.7938,-1.7924,-1.7946,-1.7921,-1.7924,-1.7953,-1.796,-1.7966,-1.7968,-1.7887,0,0,0,0,0,-1.8081,-1.8081,-1.8053,-1.8067,-1.8062,-1.8035,-1.8032,-1.8014,-1.8,-1.7995,-1.7978,-1.7966,-1.7962,-1.7961,-1.7956,-1.7973,-1.7967,-1.7983,-1.7989,-1.7994,-1.7997,-1.8004,-1.8011,-1.7941,-1.7941,-1.7941,0,0,-1.8106,-1.8089,-1.8091,-1.8076,-1.8065,-1.8065,-1.8031,-1.8033,-1.8033,-1.7995,-1.8,-1.7988,-1.7972,-1.7984,-1.7988,-1.7975,-1.8014,-1.7998,-1.8002,-1.8002,-1.8008,-1.8014,-1.802,-1.7943,-1.7943,-1.7942,0,0,-1.8152,-1.8139,-1.8149,-1.8137,-1.812,-1.8102,-1.8104,-1.8081,-1.8071,-1.8075,-1.8047,-1.8047,-1.8041,-1.8031,-1.8025,-1.8067,-1.8045,-1.8066,-1.8097,-1.8104,-1.811,-1.8114,-1.8128,-1.8134,-1.8069,-1.8069,-1.8069,0,-1.8185,-1.8184,-1.8156,-1.816,-1.8154,-1.812,-1.8129,-1.812,-1.8102,-1.8099,-1.8085,-1.8077,-1.8064,-1.8072,-1.8082,-1.8079,-1.8081,-1.8068,-1.8111,-1.8116,-1.812,-1.8133,-1.8138,-1.8071,-1.8071,-1.8071,-1.8071,0,-1.8226,-1.8226,-1.8236,-1.8219,-1.8215,-1.8221,-1.8194,-1.8193,-1.8175,-1.8158,-1.8163,-1.8146,-1.8137,-1.8138,-1.812,-1.8144,-1.8136,-1.8117,-1.8091,-1.8129,-1.8141,-1.8146,-1.8075,-1.8074,-1.8073,-1.8073,0,0,-1.8302,-1.8268,-1.8272,-1.8264,-1.8242,-1.8241,-1.8246,-1.8237,-1.8236,-1.8225,-1.8228,-1.8224,-1.8206,-1.8199,-1.818,-1.8187,-1.822,-1.8167,-1.8166,-1.8177,-1.8244,-1.8258,-1.8265,-1.8206,-1.8207,-1.8207,-1.8245,0,-1.8343,-1.8349,-1.8323,-1.8336,-1.8336,-1.8302,-1.8306,-1.8294,-1.8278,-1.8275,-1.8258,-1.8256,-1.8232,-1.8227,-1.8233,-1.8215,-1.8233,-1.8212,-1.8208,-1.8209,-1.8213,-1.8271,-1.8286,-1.8323,-1.825,-1.825,-1.8251,0,-1.8392,-1.8382,-1.8395,-1.8371,-1.837,-1.8374,-1.8363,-1.8361,-1.8345,-1.8333,-1.8326,-1.8304,-1.8307,-1.8282,-1.8286,-1.8272,-1.8269,-1.826,-1.8261,-1.8259,-1.8232,-1.8271,-1.8334,-1.8339,-1.8258,-1.8257,-1.8257,0,-1.8445,-1.8435,-1.8441,-1.8435,-1.8408,-1.8412,-1.8401,-1.8384,-1.838,-1.837,-1.8367,-1.8358,-1.8353,-1.8347,-1.8323,-1.8307,-1.8329,-1.8303,-1.8319,-1.832,-1.8325,-1.8325,-1.8389,-1.8324,-1.8324,-1.8324,-1.8324,0,-1.8493,-1.8502,-1.8465,-1.8469,-1.8477,-1.8448,-1.8458,-1.8443,-1.8429,-1.8429,-1.84,-1.8401,-1.8369,-1.8366,-1.8348,-1.8353,-1.8352,-1.8342,-1.8337,-1.8344,-1.8345,-1.8342,-1.8338,-1.8325,-1.8325,-1.8325,-1.8325,0,-1.8554,-1.853,-1.8534,-1.8507,-1.8501,-1.8509,-1.8486,-1.8488,-1.8471,-1.8472,-1.847,-1.8443,-1.8438,-1.8413,-1.8403,-1.839,-1.8402,-1.8392,-1.8408,-1.8404,-1.8422,-1.842,-1.8485,-1.8492,-1.8424,-1.8424,-1.8425,0,-1.8587,-1.8593,-1.8567,-1.8564,-1.8554,-1.8551,-1.8547,-1.8518,-1.8514,-1.8496,-1.8501,-1.8494,-1.8486,-1.848,-1.846,-1.8452,-1.8441,-1.8464,-1.8439,-1.8447,-1.844,-1.844,-1.844,-1.8469,-1.847,-1.8471,-1.8471,0,-1.8647,-1.8634,-1.8628,-1.8617,-1.8612,-1.8603,-1.8592,-1.8592,-1.856,-1.8557,-1.8551,-1.8546,-1.8535,-1.8528,-1.8516,-1.8505,-1.8483,-1.8479,-1.8483,-1.849,-1.8498,-1.8494,-1.8421,-1.8478,-1.8477,-1.8477,-1.8476,-1.8476,-1.8694,-1.8697,-1.8679,-1.8673,-1.8661,-1.8652,-1.8652,-1.8634,-1.8629,-1.8617,-1.8601,-1.8597,-1.8581,-1.8563,-1.8553,-1.855,-1.8537,-1.8542,-1.8544,-1.8545,-1.8549,-1.8499,-1.8548,-1.8548,-1.8547,-1.8547,-1.8547,0,-1.8752,-1.8738,-1.8733,-1.8718,-1.8713,-1.8692,-1.8679,-1.8676,-1.8673,-1.8659,-1.8653,-1.8646,-1.8639,-1.8617,-1.8608,-1.861,-1.8599,-1.8608,-1.8608,-1.8605,-1.8561,-1.8559,-1.8617,-1.8617,-1.8617,-1.8617,-1.8617,-1.8617,-1.8781,-1.8786,-1.8771,-1.8769,-1.8755,-1.8751,-1.8745,-1.8736,-1.8724,-1.8718,-1.8712,-1.8698,-1.868,-1.867,-1.8662,-1.8656,-1.8654,-1.8666,-1.8656,-1.8615,-1.8609,-1.8602,-1.86,-1.8666,-1.8666,-1.8701,-1.8701,-1.8702]}]]